When you browse on this site, cookies collect data to enhance your experience and personalize the content and advertising you see.
Visit our Privacy Policy to learn more. By continuing to use the site, you agree to this use of cookies and data.
  • en France
  • Liste des pays
  • À 7 jours
  • Température de l'eau
  • Carte météo
  • Widgets météo
  • user-avatar
    Se connecter

    Météo par heure à Primorsko-Dyuny

    Ce jour, 7 Décembre, Samedi

    Heure Température Précipitation Vent Pression Humidité
    00:00 +4°C° 0 mm 2 m/s 766 mmHg 88%
    01:00 +4°C° 0 mm 2 m/s 766 mmHg 87%
    02:00 +4°C° 0 mm 2 m/s 765 mmHg 86%
    03:00 +4°C° 0 mm 2 m/s 765 mmHg 85%
    04:00 +4°C° 0 mm 2 m/s 764 mmHg 85%
    05:00 +3°C° 0 mm 2 m/s 764 mmHg 84%
    06:00 +3°C° 0 mm 2 m/s 764 mmHg 83%
    07:00 +3°C° 0 mm 2 m/s 764 mmHg 81%
    08:00 +4°C° 0 mm 2 m/s 763 mmHg 80%
    09:00 +5°C° 0 mm 2 m/s 763 mmHg 74%
    10:00 +7°C° 0 mm 2 m/s 763 mmHg 68%
    11:00 +9°C° 0 mm 2 m/s 763 mmHg 61%
    12:00 +9°C° 0 mm 2 m/s 762 mmHg 62%
    13:00 +9°C° 0 mm 2 m/s 762 mmHg 62%
    14:00 +10°C° 0 mm 2 m/s 761 mmHg 62%
    15:00 +9°C° 0 mm 2 m/s 761 mmHg 67%
    16:00 +8°C° 0 mm 3 m/s 761 mmHg 71%
    17:00 +7°C° 0 mm 3 m/s 761 mmHg 76%
    18:00 +7°C° 0 mm 3 m/s 761 mmHg 76%
    19:00 +7°C° 0 mm 3 m/s 761 mmHg 77%
    20:00 +7°C° 0 mm 3 m/s 762 mmHg 77%
    21:00 +7°C° 0 mm 3 m/s 762 mmHg 75%
    22:00 +7°C° 0 mm 3 m/s 762 mmHg 73%
    23:00 +5°C° 0 mm 3 m/s 762 mmHg 71%

    Demain, 8 Décembre, Dimanche

    Heure Température Précipitation Vent Pression Humidité
    00:00 +7°C° 0 mm 3 m/s 762 mmHg 70%
    01:00 +7°C° 0 mm 3 m/s 762 mmHg 69%
    02:00 +7°C° 0 mm 3 m/s 762 mmHg 68%
    03:00 +7°C° 0 mm 3 m/s 762 mmHg 71%
    04:00 +7°C° 0 mm 3 m/s 761 mmHg 73%
    05:00 +7°C° 0 mm 3 m/s 761 mmHg 76%
    06:00 +7°C° 0 mm 3 m/s 762 mmHg 78%
    07:00 +7°C° 0 mm 3 m/s 762 mmHg 80%
    08:00 +7°C° 0 mm 3 m/s 762 mmHg 82%
    09:00 +8°C° 0 mm 3 m/s 762 mmHg 79%
    10:00 +9°C° 0 mm 3 m/s 762 mmHg 75%
    11:00 +10°C° 0 mm 3 m/s 763 mmHg 71%
    12:00 +11°C° 0 mm 3 m/s 762 mmHg 70%
    13:00 +11°C° 0 mm 3 m/s 762 mmHg 69%
    14:00 +12°C° 0 mm 2 m/s 762 mmHg 68%
    15:00 +12°C° 0 mm 2 m/s 762 mmHg 73%
    16:00 +10°C° 0 mm 2 m/s 762 mmHg 77%
    17:00 +10°C° 0 mm 1 m/s 762 mmHg 81%
    18:00 +9°C° 0 mm 1 m/s 763 mmHg 83%
    19:00 +9°C° 0 mm 1 m/s 763 mmHg 84%
    20:00 +9°C° 0 mm 1 m/s 764 mmHg 85%
    21:00 +8°C° 0 mm 1 m/s 764 mmHg 85%
    22:00 +8°C° 0 mm 1 m/s 764 mmHg 86%
    23:00 +8°C° 0 mm 1 m/s 763 mmHg 87%

    Après-demain, 9 Décembre, Lundi

    Heure Température Précipitation Vent Pression Humidité
    00:00 +8°C° 0 mm 1 m/s 763 mmHg 87%
    01:00 +7°C° 0 mm 1 m/s 763 mmHg 87%
    02:00 +7°C° 0 mm 1 m/s 763 mmHg 87%
    03:00 +7°C° 0 mm 1 m/s 763 mmHg 86%
    04:00 +7°C° 0 mm 1 m/s 762 mmHg 86%
    05:00 +7°C° 0 mm 1 m/s 762 mmHg 86%
    06:00 +7°C° 0 mm 1 m/s 762 mmHg 85%
    07:00 +7°C° 0 mm 1 m/s 762 mmHg 84%
    08:00 +6°C° 0 mm 2 m/s 762 mmHg 82%
    09:00 +7°C° 0 mm 2 m/s 762 mmHg 76%
    10:00 +9°C° 0 mm 2 m/s 762 mmHg 69%
    11:00 +12°C° 0 mm 2 m/s 761 mmHg 63%
    12:00 +12°C° 0 mm 2 m/s 761 mmHg 61%
    13:00 +13°C° 0 mm 2 m/s 760 mmHg 59%
    14:00 +13°C° 0 mm 2 m/s 760 mmHg 57%
    15:00 +12°C° 0 mm 2 m/s 759 mmHg 63%
    16:00 +10°C° 0 mm 2 m/s 759 mmHg 69%
    17:00 +9°C° 0 mm 3 m/s 759 mmHg 75%
    18:00 +9°C° 0 mm 3 m/s 759 mmHg 77%
    19:00 +8°C° 0 mm 3 m/s 759 mmHg 79%
    20:00 +8°C° 0 mm 3 m/s 759 mmHg 82%
    21:00 +7°C° 0 mm 3 m/s 759 mmHg 82%
    22:00 +7°C° 0 mm 3 m/s 759 mmHg 83%
    23:00 +7°C° 0 mm 3 m/s 759 mmHg 84%

    10 Décembre, Mardi

    Heure Température Précipitation Vent Pression Humidité
    00:00 +7°C° 0 mm 2 m/s 758 mmHg 83%
    01:00 +7°C° 0 mm 2 m/s 758 mmHg 82%
    02:00 +6°C° 0 mm 2 m/s 758 mmHg 81%
    03:00 +6°C° 0 mm 2 m/s 758 mmHg 82%
    04:00 +6°C° 0 mm 2 m/s 758 mmHg 83%
    05:00 +6°C° 0 mm 2 m/s 757 mmHg 83%
    06:00 +7°C° 0 mm 2 m/s 757 mmHg 84%
    07:00 +7°C° 0 mm 2 m/s 758 mmHg 84%
    08:00 +7°C° 0 mm 2 m/s 758 mmHg 84%
    09:00 +8°C° 0 mm 2 m/s 758 mmHg 79%
    10:00 +10°C° 0 mm 2 m/s 758 mmHg 74%
    11:00 +12°C° 0 mm 1 m/s 758 mmHg 68%
    12:00 +13°C° 0 mm 1 m/s 757 mmHg 67%
    13:00 +13°C° 0 mm 1 m/s 757 mmHg 66%
    14:00 +13°C° 0 mm 2 m/s 757 mmHg 64%
    15:00 +12°C° 0 mm 2 m/s 757 mmHg 70%
    16:00 +12°C° 0 mm 2 m/s 757 mmHg 75%
    17:00 +10°C° 0 mm 2 m/s 757 mmHg 81%
    18:00 +9°C° 0 mm 2 m/s 757 mmHg 82%
    19:00 +9°C° 0 mm 2 m/s 757 mmHg 83%
    20:00 +9°C° 0 mm 2 m/s 758 mmHg 85%
    21:00 +9°C° 0 mm 2 m/s 758 mmHg 85%
    22:00 +9°C° 0 mm 2 m/s 758 mmHg 86%
    23:00 +8°C° 0 mm 2 m/s 758 mmHg 86%

    11 Décembre, Mercredi

    Heure Température Précipitation Vent Pression Humidité
    00:00 +8°C° 0 mm 2 m/s 758 mmHg 87%
    01:00 +9°C° 0 mm 3 m/s 758 mmHg 87%
    02:00 +9°C° 0 mm 3 m/s 758 mmHg 88%
    03:00 +8°C° 0 mm 4 m/s 758 mmHg 88%
    04:00 +8°C° 0 mm 4 m/s 758 mmHg 87%
    05:00 +8°C° 0 mm 5 m/s 758 mmHg 87%
    06:00 +9°C° 0 mm 5 m/s 759 mmHg 87%
    07:00 +9°C° 0 mm 5 m/s 759 mmHg 86%
    08:00 +9°C° 0 mm 5 m/s 759 mmHg 86%
    09:00 +9°C° 0 mm 5 m/s 759 mmHg 83%
    10:00 +10°C° 0 mm 6 m/s 760 mmHg 81%
    11:00 +11°C° 0 mm 6 m/s 760 mmHg 79%
    12:00 +11°C° 0 mm 6 m/s 760 mmHg 78%
    13:00 +11°C° 0 mm 6 m/s 760 mmHg 78%
    14:00 +11°C° 0 mm 6 m/s 759 mmHg 77%
    15:00 +11°C° 0 mm 6 m/s 760 mmHg 80%
    16:00 +10°C° 0 mm 6 m/s 760 mmHg 83%
    17:00 +10°C° 0 mm 6 m/s 760 mmHg 86%
    18:00 +10°C° 0 mm 6 m/s 760 mmHg 86%
    19:00 +10°C° 0 mm 7 m/s 760 mmHg 86%
    20:00 +10°C° 0 mm 7 m/s 760 mmHg 86%
    21:00 +10°C° 0 mm 7 m/s 760 mmHg 86%
    22:00 +10°C° 0 mm 6 m/s 760 mmHg 85%
    23:00 +10°C° 0 mm 6 m/s 760 mmHg 85%

    12 Décembre, Jeudi

    Heure Température Précipitation Vent Pression Humidité
    00:00 +10°C° 0 mm 6 m/s 760 mmHg 84%
    01:00 +10°C° 0 mm 6 m/s 760 mmHg 84%
    02:00 +9°C° 0 mm 5 m/s 760 mmHg 83%
    03:00 +9°C° 0 mm 5 m/s 760 mmHg 83%
    04:00 +9°C° 0 mm 5 m/s 759 mmHg 83%
    05:00 +9°C° 0 mm 5 m/s 759 mmHg 83%
    06:00 +9°C° 0 mm 5 m/s 759 mmHg 84%
    07:00 +9°C° 0 mm 5 m/s 759 mmHg 85%
    08:00 +10°C° 0 mm 4 m/s 759 mmHg 85%
    09:00 +9°C° 0 mm 5 m/s 759 mmHg 84%
    10:00 +10°C° 0 mm 5 m/s 759 mmHg 82%
    11:00 +10°C° 0 mm 5 m/s 759 mmHg 80%
    12:00 +10°C° 0 mm 5 m/s 759 mmHg 79%
    13:00 +10°C° 0 mm 5 m/s 758 mmHg 78%
    14:00 +10°C° 0 mm 5 m/s 758 mmHg 77%
    15:00 +11°C° 0 mm 4 m/s 758 mmHg 79%
    16:00 +10°C° 0 mm 4 m/s 758 mmHg 82%
    17:00 +10°C° 0 mm 3 m/s 758 mmHg 84%
    18:00 +9°C° 0 mm 3 m/s 758 mmHg 83%
    19:00 +8°C° 0 mm 4 m/s 758 mmHg 83%
    20:00 +8°C° 0 mm 4 m/s 758 mmHg 83%
    21:00 +9°C° 0 mm 3 m/s 758 mmHg 83%
    22:00 +10°C° 0 mm 3 m/s 758 mmHg 83%
    23:00 +10°C° 0 mm 3 m/s 758 mmHg 83%
    Voir plus